Home > Weather > Hebron > Past weeks

Flag for Palestinian Territories Weather for the Past 2 Weeks in Hebron, West Bank, Palestinian Territories

Now
61 °F

Sunny.


Feels Like: 61 °F
Forecast: 39 / 61 °F
Wind: 1 mph from North

Location: Ben Gurion International Airport

Current Time: Feb 13, 2016 at 10:01:38 AM

Latest Report: Feb 13, 2016 at 9:20 AM


Visibility: 10 mi

Pressure: 30.12 "Hg (27.10 "Hg at 894m altitude)

Humidity: 55%

Dew point: 45 °F

Location of HebronLocation

Historic Weather in Hebron — Graph

°F

Hebron Temperature Yesterday

Maximum temperature yesterday: 68 °F (at 11:50 AM)
Minimum temperature yesterday: 46 °F (at 5:20 AM)
Average temperature yesterday: 57 °F

High & Low Weather Summary for the Past Weeks

 TemperatureHumidityPressure
High75 °F (Feb 4, 2:20 PM)94% (Feb 3, 6:50 AM)30.45 "Hg (Feb 3, 6:50 AM)
Low37 °F (Jan 31, 6:20 AM)21% (Feb 4, 2:20 PM)29.92 "Hg (Feb 5, 1:20 PM)
Average55 °F71%30.18 "Hg
* Reported Jan 29 8:20 AM — Feb 13 8:50 AM, Hebron, Weather by CustomWeather, © 2016

Note: Actual official high and low records may vary slightly from our data, if they occured in-between our weather recording intervals... More about our weather records

Advertising

Hebron Weather History for the Previous 24 Hours

 ConditionsComfort  
Time TempWeatherWind HumidityBarometerVisibility
8:50 AM
Sat, Feb 13
57 °FSunny.1 mph63%30.12 "Hg10 mi
8:20 AM54 °FSunny.1 mph72%30.12 "Hg10 mi
7:50 AM52 °FSunny.2 mph77%30.12 "Hg10 mi
7:20 AM48 °FSunny.3 mph82%30.12 "Hg10 mi
6:50 AM46 °FSunny.1 mph93%30.12 "Hg10 mi
6:20 AM45 °FClear.1 mph93%30.12 "Hg10 mi
5:50 AM45 °FClear.1 mph93%30.12 "Hg10 mi
5:20 AM46 °FClear.1 mph93%30.12 "Hg10 mi
4:20 AM48 °FClear.2 mph87%30.12 "Hg10 mi
3:20 AM50 °FClear.2 mph88%30.12 "Hg10 mi
2:50 AM50 °FClear.3 mph88%30.15 "Hg10 mi
2:20 AM48 °FClear.1 mph94%30.15 "Hg10 mi
1:50 AM52 °FClear.2 mph88%30.15 "Hg10 mi
1:20 AM52 °FClear.2 mph88%30.15 "Hg10 mi
12:50 AM52 °FClear.1 mph88%30.15 "Hg10 mi
12:20 AM52 °FClear.1 mph88%30.18 "Hg10 mi
11:20 PM
Fri, Feb 12
54 °FClear.2 mph82%30.18 "Hg10 mi
10:50 PM54 °FClear.2 mph82%30.18 "Hg10 mi
10:20 PM54 °FClear.3 mph82%30.18 "Hg10 mi
9:50 PM54 °FClear.5 mph82%30.18 "Hg10 mi
9:20 PM55 °FClear.3 mph82%30.21 "Hg10 mi
8:50 PM55 °FClear.3 mph82%30.21 "Hg10 mi
8:20 PM57 °FClear.3 mph77%30.21 "Hg10 mi
7:50 PM59 °FClear.1 mph72%30.21 "Hg10 mi
7:20 PM59 °FClear.1 mph72%30.21 "Hg10 mi
6:50 PM59 °FClear.5 mph68%30.21 "Hg10 mi
6:20 PM61 °FClear.2 mph63%30.21 "Hg10 mi
5:50 PM63 °FClear.3 mph59%30.18 "Hg10 mi
5:20 PM63 °FSunny.6 mph56%30.18 "Hg10 mi
4:50 PM64 °FSunny.6 mph52%30.18 "Hg10 mi
4:20 PM64 °FSunny.7 mph52%30.18 "Hg10 mi
3:50 PM64 °FSunny.9 mph56%30.18 "Hg10 mi
3:20 PM66 °FSunny.9 mph52%30.18 "Hg10 mi
2:50 PM66 °FSunny.10 mph49%30.18 "Hg10 mi
2:20 PM66 °FSunny.10 mph52%30.18 "Hg10 mi
1:50 PM66 °FSunny.10 mph52%30.18 "Hg10 mi
1:20 PM66 °FSunny.9 mph52%30.18 "Hg10 mi
12:50 PM66 °FSunny.10 mph49%30.18 "Hg10 mi
12:20 PM68 °FSunny.3 mph38%30.21 "Hg10 mi
11:50 AM68 °FSunny.3 mph40%30.21 "Hg10 mi
11:20 AM66 °FSunny.2 mph43%30.21 "Hg10 mi
10:50 AM64 °FSunny.3 mph49%30.24 "Hg10 mi
10:20 AM64 °FSunny.2 mph49%30.24 "Hg10 mi
Weather by CustomWeather, © 2016

See weather overviewHow to use our weather pages